This demonstration page uses our WeatherBlox Daily Observations layout. Learn more.

Left ArrowRight Arrow

44.31136, -96.79839

Hourly Observations for August 6, 2022

Temp ( °F °C ) Dew Point ( °F °C ) Humidity (%) Winds ( mph kmh ) Pressure ( in mb ) Visibility ( mi km ) Precip ( " mm )
12:56 am 00:56 Clear 77 25 71 21.7 82 82 Calm 29.88 1012 10 16 0.00 0.00
1:56 am 01:56 Clear 78 25.6 71 21.7 79 79 Calm 29.88 1012 10 16 0.00 0.00
2:56 am 02:56 Partly Cloudy 77 25 70 21.1 79 79 ESE 8 13 29.89 1012 10 16 0.00 0.00
3:56 am 03:56 Mostly Clear 75 23.9 71 21.7 88 88 SE 10 17 29.86 1011 10 16 0.00 0.00
4:38 am 04:38 Mostly Cloudy with Nearby Thunderstorms 75 24 72 22 89 89 SSE 9 15 29.82 1010 10 16 0.00 0.00
4:51 am 04:51 Cloudy with Strong Thunderstorms 73 23 73 23 100 100 Calm 29.82 1010 2 3 0.12 3.05
4:56 am 04:56 Cloudy with Strong Thunderstorms 73 22.8 73 22.8 100 100 SSE 9 15 29.87 1012 2 2 0.20 5.08
5:00 am 05:00 Cloudy with Strong Thunderstorms 73 23 73 23 100 100 SSE 7 11 29.81 1010 2 3 0.04 1.02
5:07 am 05:07 Cloudy with Thunderstorms 73 23 73 23 100 100 SSW 8 13 29.83 1010 9 14 0.05 1.27
5:23 am 05:23 Cloudy with Thunderstorms 73 23 73 23 100 100 W 7 11 29.82 1010 6 10 0.08 2.03
5:27 am 05:27 Cloudy with Thunderstorms 73 23 73 23 100 100 SW 8 13 29.82 1010 7 11 0.09 2.29
5:43 am 05:43 Cloudy with Rain 70 21 70 21 100 100 NNW 21 33 29.86 1011 6 10 0.14 3.56
5:47 am 05:47 Cloudy with Nearby Thunderstorms 70 21 70 21 100 100 NNW 17 28 29.88 1012 6 10 0.17 4.32
5:56 am 05:56 Cloudy with Strong Thunderstorms 68 20 68 20 100 100 NNW 15 24 29.96 1015 5 8 0.38 9.65
6:06 am 06:06 Cloudy with Strong Thunderstorms 68 20 68 20 100 100 N 21 33 29.95 1014 3 5 0.37 9.40
6:09 am 06:09 Cloudy with Heavy Rain 66 19 66 19 100 100 NNE 25 41 29.96 1015 3 4 0.45 11.43
6:12 am 06:12 Cloudy with Strong Thunderstorms 66 19 66 19 100 100 NNE 18 30 29.98 1015 3 5 0.49 12.45
6:45 am 06:45 Cloudy with Thunderstorms 59 15 59 15 100 100 NE 21 33 29.89 1012 10 16 0.74 18.80
6:49 am 06:49 Cloudy with Thunderstorms 61 16 61 16 100 100 NNE 25 41 29.88 1012 10 16 0.75 19.05
6:56 am 06:56 Windy with Storms Likely 59 15 59 15 100 100 NNE 25 41 29.92 1013 10 16 0.75 19.05
7:26 am 07:26 Partly Cloudy with Light Rain 59 15 59 15 100 100 NE 20 31 29.90 1012 10 16 0.00 0.00
7:56 am 07:56 Partly Cloudy with Light Rain 60 15.6 60 15.6 100 100 NE 12 19 29.96 1015 10 16 0.00 0.00
8:54 am 08:54 Mostly Cloudy 63 17 61 16 94 94 NE 7 11 29.99 1015 10 16 0.00 0.00
8:56 am 08:56 Mostly Cloudy 63 17.2 60 15.6 90 90 NE 7 11 30.02 1017 10 16 0.00 0.00
9:56 am 09:56 Cloudy 66 18.9 58 14.4 75 75 NE 14 22 30.01 1016 10 16 0.00 0.00
10:56 am 10:56 Cloudy with Light Rain 65 18.3 65 18.3 100 100 NNE 10 17 30.02 1017 10 16 0.00 0.00
11:56 am 11:56 Cloudy 68 20 60 15.6 76 76 NNE 13 20 30.04 1017 10 16 0.00 0.00
12:56 pm 12:56 Cloudy 72 22.2 60 15.6 66 66 NNE 14 22 30.04 1017 10 16 0.00 0.00
1:06 pm 13:06 Cloudy 72 22 57 14 61 61 NNE 16 26 29.97 1015 10 16 0.00 0.00
1:56 pm 13:56 Cloudy 72 22.2 60 15.6 66 66 NNE 13 20 30.04 1017 10 16 0.00 0.00
2:56 pm 14:56 Cloudy 73 22.8 59 15 62 62 N 14 22 30.06 1018 10 16 0.00 0.00
3:56 pm 15:56 Cloudy 74 23.3 57 13.9 56 56 N 12 19 30.06 1018 10 16 0.00 0.00
4:12 pm 16:12 Cloudy 73 23 59 15 61 61 NNE 12 19 29.98 1015 10 16 0.00 0.00
4:56 pm 16:56 Mostly Cloudy 71 21.7 59 15 66 66 NNE 12 19 30.06 1018 10 16 0.00 0.00
5:56 pm 17:56 Mostly Sunny 70 21.1 59 15 68 68 NNE 13 20 30.05 1018 10 16 0.00 0.00
6:56 pm 18:56 Mostly Cloudy 71 21.7 59 15 66 66 NE 13 20 30.07 1018 10 16 0.00 0.00
7:56 pm 19:56 Sunny 72 22.2 61 16.1 68 68 NE 8 13 30.06 1018 10 16 0.00 0.00
8:56 pm 20:56 Clear 67 19.4 59 15 76 76 NNE 10 17 30.07 1018 10 16 0.00 0.00
9:56 pm 21:56 Cloudy 66 18.9 59 15 78 78 NNE 7 11 30.09 1019 10 16 0.00 0.00
10:56 pm 22:56 Cloudy 65 18.3 59 15 81 81 NNE 12 19 30.10 1019 10 16 0.00 0.00
11:56 pm 23:56 Cloudy 65 18.3 59 15 81 81 NNE 8 13 30.10 1019 10 16 0.00 0.00

Powered by AerisWeather